Weather History for EGUN - September, 2012

Change the Weather History Date:

Saturday, September 22, 2012

  Actual Average (EGSC) Record (EGSC)
Temperature  
Mean Temperature 49 °F -  
Max Temperature 61 °F 63 °F 75 °F (2010)
Min Temperature 38 °F 51 °F 41 °F (2012)
Degree Days  
Heating Degree Days 16    
Moisture  
Dew Point 44 °F    
Average Humidity 79    
Maximum Humidity 100    
Minimum Humidity 58    
Precipitation  
Precipitation 0.00 in - - ()
Sea Level Pressure  
Sea Level Pressure 30.12 in    
Wind  
Wind Speed 6 mph ()    
Max Wind Speed 10 mph    
Max Gust Speed -    
Visibility 6.2 miles    
Events      
Averages and records for this station are not official NWS values.
T = Trace of Precipitation, MM = Missing Value Source: Averaged Metar Reports

Daily Weather History Graph

Daily Weather History Graph

Search for Another Location

Airport or City:

Trip Planner

Search our weather history database for the weather conditions in past years. The results will help you decide how hot, cold, wet, or windy it might be!

Date:

Astronomy

Sep. 22, 2012 Rise Set
Actual Time 6:44 AM BST 6:55 PM BST
Civil Twilight 6:10 AM BST 7:29 PM BST
Nautical Twilight 5:30 AM BST 8:09 PM BST
Astronomical Twilight 4:48 AM BST 8:51 PM BST
Moon 2:36 PM BST (9/22) 10:58 PM BST (9/22)
Length of Visible Light 13h 19m
Length of Day
12h 11m
Waxing Crescent, 46% of the Moon is Illuminated
Sep 22
Waxing Crescent
Sep 22
First Quarter
Sep 30
Full
Oct 8
Last Quarter
Oct 15
New

Hourly Weather History & Observations

Time (BST) Temp. Windchill Dew Point Humidity Pressure Visibility Wind Dir Wind Speed Gust Speed Precip Events Conditions
12:58 AM 47.5 °F - 47.5 °F 100% 30.02 in 6.2 mi NNW 9.2 mph - N/A   Mostly Cloudy
1:15 AM 46.4 °F 42.4 °F 46.4 °F 100% 30.01 in 6.2 mi NNW 8.1 mph - N/A   Mostly Cloudy
1:58 AM 45.1 °F 41.4 °F 45.1 °F 100% 30.03 in 6.2 mi NNW 6.9 mph - N/A   Clear
2:58 AM 43.7 °F 39.1 °F 43.7 °F 100% 30.04 in 6.2 mi NW 8.1 mph - N/A   Clear
3:58 AM 42.3 °F 37.3 °F 42.3 °F 100% 30.05 in 6.2 mi NW 8.1 mph - N/A   Clear
4:58 AM 40.8 °F 36.2 °F 40.8 °F 100% 30.05 in 6.2 mi NNW 6.9 mph - N/A   Clear
5:58 AM 39.4 °F 35.2 °F 39.4 °F 100% 30.07 in 6.2 mi NNW 5.8 mph - N/A   Clear
6:58 AM 38.7 °F 34.3 °F 38.7 °F 100% 30.09 in 6.2 mi NW 5.8 mph - N/A   Clear
7:58 AM 41.2 °F 39.2 °F 41.2 °F 100% 30.11 in 6.2 mi NNW 3.5 mph - N/A   Clear
8:58 AM 45.9 °F 42.3 °F 45.3 °F 98% 30.13 in 6.2 mi NW 6.9 mph - N/A   Clear
9:58 AM 50.2 °F - 46.8 °F 88% 30.15 in 6.2 mi NW 5.8 mph - N/A   Clear
10:58 AM 53.6 °F - 47.7 °F 80% 30.16 in 6.2 mi NNW 6.9 mph - N/A   Clear
11:58 AM 55.2 °F - 47.7 °F 76% 30.16 in 6.2 mi NNW 3.5 mph - N/A   Partly Cloudy
12:08 PM 57.2 °F - 48.2 °F 72% 30.14 in 6.2 mi North 10.4 mph - N/A   Mostly Cloudy
12:12 PM 57.2 °F - 48.2 °F 72% 30.14 in 6.2 mi NNW 5.8 mph - N/A   Scattered Clouds
12:47 PM 59.0 °F - 46.4 °F 63% 30.14 in 6.2 mi NNW 8.1 mph - N/A   Mostly Cloudy
12:52 PM 59.0 °F - 46.4 °F 63% 30.14 in 6.2 mi North 8.1 mph - N/A   Mostly Cloudy
12:58 PM 58.3 °F - 46.6 °F 65% 30.15 in 6.2 mi North 8.1 mph - N/A   Mostly Cloudy
1:01 PM 57.2 °F - 46.4 °F 67% 30.14 in 6.2 mi NNW 8.1 mph - N/A   Mostly Cloudy
1:31 PM 57.2 °F - 44.6 °F 63% 30.14 in 6.2 mi North 5.8 mph - N/A   Scattered Clouds
1:35 PM 59.0 °F - 44.6 °F 59% 30.14 in 6.2 mi North 6.9 mph - N/A   Mostly Cloudy
2:11 PM 57.2 °F - 46.4 °F 67% 30.13 in 6.2 mi North 4.6 mph - N/A   Overcast
2:58 PM 60.4 °F - 45.5 °F 58% 30.14 in 6.2 mi North 9.2 mph - N/A   Mostly Cloudy
3:37 PM 57.2 °F - 46.4 °F 67% 30.13 in 6.2 mi NNW 8.1 mph - N/A   Mostly Cloudy
3:47 PM 59.0 °F - 44.6 °F 59% 30.13 in 6.2 mi NNE 8.1 mph - N/A   Scattered Clouds
3:58 PM 59.0 °F - 44.6 °F 59% 30.13 in 6.2 mi North 5.8 mph - N/A   Scattered Clouds
4:58 PM 58.8 °F - 44.4 °F 59% 30.14 in 6.2 mi North 6.9 mph - N/A   Clear
5:58 PM 57.2 °F - 42.6 °F 58% 30.15 in 6.2 mi NE 6.9 mph - N/A   Scattered Clouds
6:10 PM 55.4 °F - 42.8 °F 63% 30.14 in 6.2 mi NNE 6.9 mph - N/A   Mostly Cloudy
6:23 PM 53.6 °F - 42.8 °F 67% 30.15 in 6.2 mi NE 4.6 mph - N/A   Scattered Clouds
6:58 PM 52.5 °F - 43.2 °F 70% 30.16 in 6.2 mi NE 3.5 mph - N/A   Mostly Cloudy
7:58 PM 49.6 °F - 43.2 °F 78% 30.15 in 6.2 mi ENE 4.6 mph - N/A   Clear
8:58 PM 47.8 °F - 42.8 °F 83% 30.15 in 6.2 mi East 3.5 mph - N/A   Partly Cloudy
9:58 PM 46.6 °F - 42.8 °F 87% 30.15 in 6.2 mi ESE 4.6 mph - N/A   Clear
10:58 PM 45.9 °F - 42.8 °F 89% 30.14 in 6.2 mi East 2.3 mph - N/A   Clear
11:58 PM 42.6 °F - 42.1 °F 98% 30.13 in 6.2 mi Calm Calm - N/A   Clear